Regional Weather Roundup
Issued by NWS

Home | Current Version | Previous Version | Graphics & Text | Print | Product List | Glossary On
Versions: 1 2 3 4 5 6 7 8 9 10 11 12 13 14 15 16 17 18 19 20 21 22 23 24 25 26 27 28 29 30 31 32 33 34 35 36 37 38 39 40 41 42 43 44 45 46 47 48 49 50
000
ASUS43 KLOT 021400
RWRIL

ILLINOIS REGIONAL WEATHER ROUNDUP
NATIONAL WEATHER SERVICE CHICAGO/ROMEOVILLE IL
900 AM CDT SUN AUG 02 2015

NOTE: "FAIR" INDICATES FEW OR NO CLOUDS BELOW 12,000 FEET WITH NO
SIGNIFICANT WEATHER AND/OR OBSTRUCTIONS TO VISIBILITY.

* THESE STATIONS ARE NOT UNDER NWS QUALITY CONTROL. THEY ALSO MAY NOT
  REPORT WEATHER SUCH AS PRECIPITATION OR FOG.

ILZ001-002-007-009-015-016-024-021500-
NORTHWEST ILLINOIS

CITY           SKY/WX    TMP DP  RH WIND       PRES   REMARKS
MOLINE         MOSUNNY   79  64  60 SW12      29.85F HX  81
STERLING*      SUNNY     79  66  65 W8        29.83S HX  81
$$

ILZ003-004-008-010-011-017-018-021500-
NORTH CENTRAL ILLINOIS

CITY           SKY/WX    TMP DP  RH WIND       PRES   REMARKS
ROCKFORD       MOSUNNY   79  69  71 SW9       29.85S HX  81
$$

ILZ005-006-012>014-019>023-021500-
NORTHEAST ILLINOIS

CITY           SKY/WX    TMP DP  RH WIND       PRES   REMARKS
CHICAGO-OHARE  MOSUNNY   80  65  59 SW16G25   29.84S HX  82
CHICAGO-MIDWAY MOSUNNY   81  65  58 SW14G28   29.85S HX  83
AURORA         SUNNY     77  65  66 SW14      29.86S
JOLIET*        SUNNY     79  69  71 SW8       29.88S HX  81
WAUKEGAN       SUNNY     79  68  69 SW10G18   29.81F HX  81
DUPAGE AIRPORT SUNNY     78  64  61 SW13      29.85S HX  80
WHEELING       SUNNY     81  63  54 SW13G22   29.85R HX  82
ROMEOVILLE*    SUNNY     77  65  66 SW12G21   29.87S
NORTHERLY ISL    N/A     79  63  57 W10         N/A  HX  80
$$

LMZ740>746-021500-
SOUTHERN LAKE MICHIGAN

STATION/POSITION SKY/WX   TEMP    WIND        PRES    VSBY  WAVE
                          AIR SEA DIR/SP/G                  HT/PER
                          (F)     (DEG/KT/KT) (MB)    (MI)  (FT/S)
HARRISON CRIB              74     210/ 13/ 19   N/A
BURNHAM HARBOR             76     230/  5/  9   N/A
CALUMET HARBOR             75     200/  7/  9   N/A
BURNS HARBOR               74     200/ 10/ 13 1012.2S
MICHIGAN CITY              73     180/ 11/ 13   N/A
MICHIGAN CITY 6N           73 73  220/ 12/ 16   N/A           2/ 3
ST. JOSEPH                 73 73  240/ 16/ 17   N/A           3/ 4
$$

ILZ025>027-034>036-040-047-049-050-058-095>099-021500-
WEST-CENTRAL ILLINOIS

CITY           SKY/WX    TMP DP  RH WIND       PRES   REMARKS
QUINCY         PTSUNNY   76  69  79 SW12      29.93R
MACOMB*        CLOUDY    74  67  76 SW7       29.93S
$$

ILZ028>032-037-038-041>044-048-051>054-059>061-021500-
CENTRAL ILLINOIS

CITY           SKY/WX    TMP DP  RH WIND       PRES   REMARKS
DECATUR        MOSUNNY   79  69  71 SW8       29.95F HX  81
PEORIA         SUNNY     78  68  71 SW10      29.91S HX  80
SPRINGFIELD    SUNNY     80  70  71 SW12G17   29.93F HX  83
TAYLORVILLE    NOT AVBL
$$

ILZ033-039-045-046-055>057-062-063-021500-
EAST-CENTRAL ILLINOIS

CITY           SKY/WX    TMP DP  RH WIND       PRES   REMARKS
CHAMPAIGN      SUNNY     77  69  76 SW10      29.95S
DANVILLE*      SUNNY     75  68  78 SW8       29.93S
MATTOON        SUNNY     77  65  66 SW10      29.96S
$$

ILZ079-100>102-021500-
SOUTHWEST ILLINOIS

CITY           SKY/WX    TMP DP  RH WIND       PRES   REMARKS
CAHOKIA*       SUNNY     81  70  69 VRB3      29.96S HX  84
$$

ILZ064>066-069>071-074>076-080>082-084>086-088>090-092>094-021500-
SOUTH-CENTRAL ILLINOIS

CITY           SKY/WX    TMP DP  RH WIND       PRES   REMARKS
CARBONDALE     SUNNY     78  67  68 S6        29.99R HX  80
MARION         MOSUNNY   79  68  69 S8        30.00R HX  81
MT. VERNON     SUNNY     81  66  61 S6        29.99S HX  83
SALEM*         SUNNY     80  67  63 SW8       29.98R HX  82
$$

ILZ067-068-072-073-078-083-087-091-021500-
SOUTHEAST ILLINOIS

CITY           SKY/WX    TMP DP  RH WIND       PRES   REMARKS
LAWRENCEVILLE  SUNNY     77  66  68 SW6       29.99R
FLORA*         SUNNY     78  64  61 SW6       29.98S HX  80
HARRISBURG*    SUNNY     76  68  77 SW3       30.00R
ROBINSON*      SUNNY     77  66  69 SW5       29.99S
CARMI*         SUNNY     77  65  66 CALM      29.99R
$$

ABBREVIATIONS USED IN REMARKS
   TC - TEMPERATURE IN CELSIUS
  WCI - WIND CHILL INDEX
   HX - HEAT INDEX
  VSB - VISIBILITY
$$




USA.gov is the U.S. government's official web portal to all federal, state and local government web resources and services.